sat.trackr.live / text

‹ back to catalog

STARLINK-30367

NORAD 57791 · 2023-134W

PAYLOAD ACTIVE UNKNOWN

§ Identity

Operator
Country
US
Launch date
2023-09-04
Launch site
AFETR
Launch vehicle
Mass (kg)
RCS (m²)

Purposes: comms

External: N2YO · Heavens-Above · Gunter

§ Orbital elements

Epoch: 2026-05-24T23:21:42.242976Z

Period
94.27 min
Inclination
43.0035°
Eccentricity
0.0001035
Mean motion
15.27576894 rev/d
Perigee alt
482.3 km
Apogee alt
483.8 km
Semi-major
6,861.2 km
B*
3.9356e-5
RAAN
123.6520°
Arg perigee
270.5716°
Mean anomaly
89.5017°
Rev number
15,117

§ Raw data

STARLINK-303671 57791U 23134W   26144.97340559  .00000821  00000+0  39356-4 0  99912 57791  43.0035 123.6520 0001035 270.5716  89.5017 15.27576894151171

JSON: /api/v1/satellites/57791 · /tle

For live sub-satellite position, see the globe view (requires WebGL).

§ Visibility from observer

Set your observer location to see the next 7 days of passes ≥ 10°. The values pass through the URL so the page stays shareable.

No JS? Fill the form by hand. The geolocation button needs JavaScript.